User: anonymous   Login
Location: Kuffner-Sternwarte
(48.2130°N, 16.2960°E)
Time: 10:39:29
(UTC+02:00)
Language:

COROT - Orbit

View from above orbital plane
View from above orbital plane
View from above satellite
View from above satellite

Ground track
Ground track

The orbit data is extracted from the following two-line orbital elements,

1 29678U 06063A   17266.84927238 +.00000189 +00000-0 +38799-4 0  9990
2 29678 090.0377 015.5724 0203663 139.7380 221.9113 14.44094978554301
Epoch (UTC): 23 September 2017 20:22:57
Eccentricity: 0.0203663
inclination: 90.0377°
perigee height: 600 km
apogee height: 890 km
right ascension of ascending node: 15.5724°
argument of perigee: 139.7380°
revolutions per day: 14.44094978
mean anomaly at epoch: 221.9113°
orbit number at epoch: 55430

The dashed part of the orbit path shows where the satellite is in the earth's shadow,  

DLR